Regional Weather Roundup
Issued by NWS

Home | Current Version | Previous Version | Graphics & Text | Print | Product List | Glossary On
Versions: 1 2 3 4 5 6 7 8 9 10 11 12 13 14 15 16 17 18 19 20 21 22 23 24 25 26 27 28 29 30 31 32 33 34 35 36 37 38 39 40 41 42 43 44 45 46 47 48 49 50
000
ASUS43 KDMX 041307
RWRIA

WEATHER ROUNDUP FOR IOWA
NATIONAL WEATHER SERVICE DES MOINES IA
800 AM CDT MON MAY 04 2015

NOTE: "FAIR" INDICATES FEW OR NO CLOUDS BELOW 12,000 FEET WITH NO
SIGNIFICANT WEATHER AND/OR OBSTRUCTIONS TO VISIBILITY.

* - THESE STATIONS ARE NOT NWS STATIONS...THUS NOT UNDER NWS
QUALITY CONTROL.  THEY ALSO DO NOT REPORT WEATHER SUCH
AS PRECIPITATION OR FOG.

IAZ001>003-012>014-020>022-031>034-043>046-041400-
   NORTHWEST IOWA

CITY           SKY/WX    TMP DP  RH WIND       PRES   REMARKS
CARROLL *      MOSUNNY   59  48  67 NE13      30.06R
CHEROKEE *     PTSUNNY   54  36  50 N9        30.08R
DENISON *      PTSUNNY   55  46  71 NE12      30.04R
LE MARS *      SUNNY     55  32  41 N13G20    30.10R
ORANGE CITY *  SUNNY     52  30  43 NE8       30.10R
SHELDON *      SUNNY     55  32  41 NE15G22   30.10R
SIOUX CITY     PTSUNNY   57  34  41 N7        30.10R
SPENCER        MOSUNNY   55  36  48 NE16      30.10R
STORM LAKE *   SUNNY     54  41  62 NE14G21   30.08R
$$

IAZ055>058-069>071-079>083-090>094-041400-
   SOUTHWEST IOWA

CITY           SKY/WX    TMP DP  RH WIND       PRES   REMARKS
ATLANTIC *     SUNNY     59  54  82 N9        30.05R
AUDUBON *      MOSUNNY   57  52  82 N13       30.05R
CLARINDA *     DRIZZLE   61  59  94 N17       30.02F
COUNCIL BLFS * PTSUNNY   57  54  88 NE12      30.05F
CRESTON *      PTSUNNY   59  59 100 N14G23    30.01R
HARLAN  *      PTSUNNY   59  54  82 NE7G13    30.09R
LAMONI         CLOUDY    64  59  83 W7        30.00R
RED OAK *      PTSUNNY   59  55  88 N5        30.06R
SHENANDOAH *   LGT RAIN  57  57 100 NE13G28   30.00F
$$

IAZ047>049-059>061-072>074-084-041400-
   CENTRAL IOWA

CITY           SKY/WX    TMP DP  RH WIND       PRES   REMARKS
AMES           CLOUDY    61  56  83 NE12      30.01S
ANKENY *       SUNNY     63  59  88 NE16      30.00R
CHARITON *     SUNNY     66  61  82 NW9       29.98R
DES MOINES     CLOUDY    64  56  75 NE13G20   29.99R
GRINNELL*      CLOUDY    61  57  88 NE12      30.01R
KNOXVILLE *    SUNNY     63  57  82 N10       29.97R
MARSHALLTOWN   CLOUDY    59  58  96 NE14      30.02R FOG
PELLA *        CLOUDY    63  61  94 N8        30.00R
PERRY *          N/A     61  55  82 NE10      30.02R
$$

IAZ004>006-015-016-023>025-035-036-041400-
   NORTH CENTRAL IOWA

CITY           SKY/WX    TMP DP  RH WIND       PRES   REMARKS
ALGONA *       SUNNY     54  45  71 NE13      30.09R
CLARION *      SUNNY     57  54  88 NE16      30.06R
ESTHERVILLE    MOSUNNY   53  35  50 NE16      30.10R
FORT DODGE *   PTSUNNY   57  48  72 N12       30.06S
MASON CITY     MOSUNNY   56  48  74 N10       30.09R
FOREST CITY *  SUNNY     55  43  62 NE9       30.09R
IOWA FALLS *     N/A     59  55  88 N12       30.05S
$$

IAZ007>011-017>019-026>030-037>042-050>054-066-041400-
   NORTHEAST IOWA

CITY           SKY/WX    TMP DP  RH WIND       PRES   REMARKS
CEDAR RAPIDS   CLOUDY    61  59  93 N8        30.02R
CHARLES CITY * PTSUNNY   57  54  88 N14       30.07R
CLINTON *      CLOUDY    61  57  88 N5        30.03R
DECORAH *      PTSUNNY   57  57 100 N8G15     30.05R
DUBUQUE        CLOUDY    59  56  89 N9        30.04R
MONTICELLO *   SUNNY     61  61 100 N7        30.04R
OELWEIN *      CLOUDY    59  57  94 N8        30.05S
WATERLOO       CLOUDY    60  57  89 N5        30.04R
$$

IAZ064-065-067-068-078-041400-
   EAST CENTRAL IOWA

CITY           SKY/WX    TMP DP  RH WIND       PRES   REMARKS
DAVENPORT      CLOUDY    63  58  83 S15       30.00S
IOWA CITY      CLOUDY    61  59  93 SE10      30.02R
MT. PLEASANT * CLOUDY    61  59  94 E14       29.99F
MUSCATINE *    MOSUNNY   63  59  88 SE10      30.00F
$$

IAZ062-063-075>077-085>089-095>099-041400-
   SOUTHEAST IOWA

CITY           SKY/WX    TMP DP  RH WIND       PRES   REMARKS
BURLINGTON     CLOUDY    62  60  93 SE9       30.01S
FAIRFIELD *    PTSUNNY   61  57  88 E12       29.97S
FORT MADISON * SUNNY     63  61  94 E13       29.99F
KEOKUK *       SUNNY     63  63 100 SE8G15    30.00F
OSKALOOSA *    PTSUNNY   63  57  82 SE10      29.97R
CENTERVILLE *  SUNNY     63  63 100 SE5       30.00R
OTTUMWA        CLOUDY    63  60  90 E10       29.95R
WASHINGTON *   SUNNY     61  61 100 E10       29.98F
$$

ABBREVIATIONS USED IN REMARKS
   TC - TEMPERATURES IN CELSIUS
  WCI - WIND CHILL INDEX
   HX - HEAT INDEX
  VSB - VISIBILITY
$$



USA.gov is the U.S. government's official web portal to all federal, state and local government web resources and services.